[[{"header":{"parameterUnit":"m.s-1","parameterCategory":1,"la1":30.2991,"la2":30.254,"lo1":-89.0895,"lo2":-89.0444,"dy":0.0017,"dx":0.0017,"nx":28,"ny":28,"refTime":"2023-08-19T03:00:00:Z","depth":0,"parameterNumber":2,"parameterNumberName":"U-component_of_WINDS"},"data":[0,0,0,0,0,0,0,0,0,0,0,0,0,0,0,0,0,0,0,0,0,0,0,0,0,0,0,0,0,0,0,0,0,0,0,0,0,0,0,0,0,0,0,0,0,0,0,0,0,0,0,0,0,0,0,0,0,0,-0.7305,-0.7303,0,-0.7182,-0.7181,-0.718,-0.716,-0.7161,-0.7162,-0.7163,-0.7035,-0.7031,-0.7027,0,0,0,0,0,0,0,0,0,0,0,0,0,-0.7521,-0.7517,-0.7305,-0.7303,-0.7302,-0.7183,-0.7181,-0.7179,-0.716,-0.7161,-0.7162,-0.7164,-0.7037,-0.7032,-0.7026,0,0,0,0,0,0,0,0,0,0,0,0,0,-0.7416,-0.7516,-0.7305,-0.7278,-0.7274,-0.7183,-0.7181,-0.7179,-0.716,-0.7161,-0.7163,-0.7164,-0.7039,-0.7032,-0.7026,-0.6952,0,0,-0.7005,-0.7003,0,0,0,0,0,0,0,0,-0.7422,-0.7408,-0.7283,-0.7279,-0.7275,-0.7188,-0.721,-0.7103,-0.7159,-0.7203,-0.7163,-0.7165,-0.7085,-0.7074,-0.7048,-0.6947,-0.6941,-0.7005,-0.7001,-0.6998,-0.6996,0,0,0,0,0,0,0,-0.7429,-0.7413,-0.7256,-0.7281,-0.7276,-0.7271,-0.7258,-0.719,-0.7136,-0.7199,-0.7198,-0.7183,-0.7083,-0.7054,-0.7045,-0.6939,-0.7005,-0.6999,-0.6995,-0.6992,-0.6774,-0.6773,0,0,0,0,0,0,-0.7441,-0.7419,-0.726,-0.7253,-0.7354,-0.7266,-0.7251,-0.7214,-0.7137,-0.7127,-0.7182,-0.7183,-0.7065,-0.7052,-0.704,-0.6951,-0.6998,-0.6992,-0.6988,-0.6776,-0.6774,-0.6772,0,0,0,0,0,0,-0.7446,-0.7427,-0.7265,-0.7335,-0.7314,-0.7261,-0.7219,-0.7211,-0.7183,-0.7124,-0.7114,-0.7163,-0.7066,-0.7049,-0.6975,-0.6946,-0.6989,-0.6983,-0.6778,-0.6776,-0.6773,-0.6772,0,0,0,0,0,0,-0.7452,-0.7429,-0.7401,-0.7335,-0.7311,-0.7202,-0.7217,-0.7208,-0.7172,-0.7171,-0.7103,-0.7094,-0.7066,-0.6985,-0.6969,-0.6938,-0.6978,-0.6781,-0.6777,-0.6774,-0.6774,-0.6769,-0.6765,0,0,0,0,0,-0.746,-0.7404,-0.7399,-0.738,-0.7274,-0.7201,-0.7187,-0.7156,-0.7169,-0.7141,-0.7103,-0.7096,-0.6952,-0.6978,-0.6959,-0.6926,-0.6782,-0.6778,-0.6774,-0.6776,-0.677,-0.6765,0,0,0,0,0,0,-0.7466,-0.7395,-0.7389,-0.731,-0.7262,-0.7198,-0.716,-0.7151,-0.7097,-0.7099,-0.7063,-0.7048,-0.6976,-0.6943,-0.6973,-0.6853,-0.6868,-0.686,-0.6876,-0.687,-0.6866,-0.6875,-0.6972,0,0,0,0,0,-0.7459,-0.7406,-0.7346,-0.7282,-0.7258,-0.7214,-0.718,-0.7162,-0.711,-0.7089,-0.7046,-0.6996,-0.694,-0.6903,-0.6848,-0.677,-0.6755,-0.6738,-0.6733,-0.673,-0.6724,-0.6682,-0.6674,-0.6759,-0.6759,-0.6759,0,0,-0.7442,-0.7397,-0.7365,-0.7282,-0.7243,-0.7189,-0.7196,-0.7138,-0.7098,-0.708,-0.7008,-0.6975,-0.6916,-0.6841,-0.6805,-0.6811,-0.6697,-0.6725,-0.6723,-0.6718,-0.6677,-0.6669,-0.6662,-0.6756,-0.6756,-0.6757,0,0,-0.7384,-0.7344,-0.7288,-0.7249,-0.7189,-0.716,-0.7147,-0.7085,-0.7063,-0.699,-0.6976,-0.6928,-0.6831,-0.6791,-0.6757,-0.6688,-0.6679,-0.6671,-0.6647,-0.6607,-0.6601,-0.6594,-0.6571,-0.6563,-0.6664,-0.6664,-0.6664,0,-0.7371,-0.7289,-0.7259,-0.7203,-0.7167,-0.715,-0.7093,-0.7057,-0.6982,-0.6958,-0.6967,-0.6847,-0.6806,-0.6722,-0.6705,-0.6678,-0.6663,-0.6678,-0.6604,-0.6598,-0.6591,-0.6569,-0.656,-0.6664,-0.6664,-0.6664,-0.6664,0,-0.7277,-0.722,-0.7182,-0.7112,-0.7072,-0.7016,-0.6978,-0.6941,-0.6926,-0.6897,-0.6824,-0.6775,-0.6711,-0.669,-0.6673,-0.6603,-0.661,-0.6611,-0.6627,-0.6583,-0.6562,-0.6552,-0.6663,-0.6663,-0.6663,-0.6664,0,0,-0.7218,-0.7135,-0.7121,-0.709,-0.7025,-0.6981,-0.6924,-0.6863,-0.6833,-0.6782,-0.6734,-0.6655,-0.6657,-0.6619,-0.6599,-0.6564,-0.6514,-0.657,-0.6568,-0.6562,-0.6435,-0.6435,-0.6425,-0.6508,-0.6506,-0.6505,-0.6441,0,-0.7153,-0.7052,-0.7025,-0.694,-0.6888,-0.6873,-0.6823,-0.6778,-0.675,-0.6702,-0.667,-0.6615,-0.6621,-0.6599,-0.6563,-0.6527,-0.6488,-0.6532,-0.6464,-0.6462,-0.6479,-0.6414,-0.6412,-0.6354,-0.6432,-0.643,-0.6429,0,-0.7064,-0.7014,-0.6924,-0.6868,-0.6845,-0.6801,-0.6744,-0.6699,-0.6648,-0.6629,-0.6589,-0.6573,-0.6514,-0.6533,-0.6451,-0.6482,-0.6453,-0.6431,-0.6428,-0.6421,-0.6443,-0.6405,-0.6335,-0.6326,-0.6415,-0.6416,-0.6417,0,-0.7032,-0.6942,-0.6877,-0.6851,-0.6783,-0.6753,-0.6724,-0.6674,-0.664,-0.659,-0.6568,-0.6511,-0.648,-0.6437,-0.6406,-0.6422,-0.6328,-0.6344,-0.6311,-0.6312,-0.6292,-0.6294,-0.6217,-0.6272,-0.6272,-0.6273,-0.6273,0,-0.6964,-0.6909,-0.6863,-0.6822,-0.6762,-0.6731,-0.6672,-0.6642,-0.6599,-0.6553,-0.6535,-0.6493,-0.6454,-0.6407,-0.6382,-0.632,-0.6305,-0.629,-0.6284,-0.6291,-0.6294,-0.6272,-0.6275,-0.627,-0.6271,-0.6271,-0.6272,0,-0.6918,-0.6884,-0.6812,-0.6755,-0.6739,-0.6697,-0.6648,-0.6609,-0.6581,-0.6523,-0.6508,-0.6463,-0.6407,-0.6372,-0.6299,-0.6283,-0.6215,-0.621,-0.6233,-0.623,-0.62,-0.6204,-0.6107,-0.6093,-0.6157,-0.6157,-0.6156,0,-0.6876,-0.6834,-0.6773,-0.6742,-0.6713,-0.6662,-0.6628,-0.6596,-0.6561,-0.6502,-0.647,-0.6413,-0.6365,-0.6276,-0.6237,-0.6182,-0.6176,-0.6146,-0.6168,-0.6178,-0.6177,-0.6181,-0.6177,-0.6143,-0.6142,-0.6142,-0.6141,0,-0.6807,-0.6793,-0.6744,-0.6691,-0.665,-0.6606,-0.6562,-0.6537,-0.6499,-0.646,-0.6403,-0.6367,-0.6294,-0.6238,-0.618,-0.6149,-0.6139,-0.6135,-0.6125,-0.6132,-0.6148,-0.6141,-0.6224,-0.6137,-0.6137,-0.6138,-0.6138,-0.6138,-0.6763,-0.6726,-0.6678,-0.6625,-0.6589,-0.6549,-0.651,-0.6478,-0.643,-0.6369,-0.6354,-0.6294,-0.6246,-0.6168,-0.6136,-0.609,-0.6094,-0.6079,-0.6075,-0.6072,-0.6072,-0.6155,-0.6079,-0.6079,-0.6079,-0.6079,-0.6079,0,-0.6694,-0.6663,-0.6614,-0.6554,-0.6513,-0.6508,-0.646,-0.6426,-0.6374,-0.633,-0.6285,-0.622,-0.6166,-0.6124,-0.6068,-0.6039,-0.6033,-0.6026,-0.6028,-0.6021,-0.6071,-0.6086,-0.6032,-0.6032,-0.6032,-0.6032,-0.6032,-0.6032,-0.6653,-0.6591,-0.6572,-0.6492,-0.6461,-0.6404,-0.6377,-0.634,-0.6306,-0.6235,-0.619,-0.6164,-0.6121,-0.6063,-0.6013,-0.6002,-0.5983,-0.5977,-0.5965,-0.6012,-0.6018,-0.6023,-0.6036,-0.5973,-0.5973,-0.592,-0.5919,-0.5919]},{"header":{"parameterUnit":"m.s-1","parameterCategory":1,"la1":30.2991,"la2":30.254,"lo1":-89.0895,"lo2":-89.0444,"dy":0.0017,"dx":0.0017,"nx":28,"ny":28,"refTime":"2023-08-19T03:00:00:Z","depth":0,"parameterNumber":3,"parameterNumberName":"V-component_of_WINDS"},"data":[0,0,0,0,0,0,0,0,0,0,0,0,0,0,0,0,0,0,0,0,0,0,0,0,0,0,0,0,0,0,0,0,0,0,0,0,0,0,0,0,0,0,0,0,0,0,0,0,0,0,0,0,0,0,0,0,0,0,4.0353,4.0353,0,4.0271,4.027,4.0269,4.0196,4.0195,4.0194,4.0193,4.0107,4.0106,4.0104,0,0,0,0,0,0,0,0,0,0,0,0,0,4.0442,4.0441,4.0354,4.0353,4.0352,4.0271,4.027,4.0269,4.0196,4.0195,4.0194,4.0193,4.0108,4.0106,4.0104,0,0,0,0,0,0,0,0,0,0,0,0,0,4.0386,4.044,4.0354,4.0305,4.03,4.0272,4.027,4.0269,4.0196,4.0195,4.0194,4.0192,4.0108,4.0106,4.0104,4.0116,0,0,4.0097,4.0096,0,0,0,0,0,0,0,0,4.0389,4.0383,4.0314,4.0309,4.0303,4.0243,4.027,4.0217,4.0197,4.0236,4.0193,4.0192,4.0153,4.0147,4.0134,4.0112,4.0108,4.0097,4.0095,4.0094,4.0094,0,0,0,0,0,0,0,4.0393,4.0386,4.0321,4.0313,4.0306,4.0286,4.0277,4.0259,4.0203,4.0232,4.0227,4.0218,4.015,4.0137,4.0132,4.0107,4.0097,4.0095,4.0093,4.0093,4.0082,4.0083,0,0,0,0,0,0,4.0405,4.039,4.0323,4.0318,4.0344,4.0285,4.0275,4.0263,4.0203,4.0192,4.0219,4.0215,4.0141,4.0135,4.0129,4.0134,4.0094,4.0092,4.0091,4.0081,4.0083,4.0084,0,0,0,0,0,0,4.0407,4.04,4.0327,4.0352,4.0342,4.0285,4.0273,4.0262,4.0249,4.0193,4.0182,4.0217,4.014,4.0132,4.0118,4.013,4.0091,4.0089,4.008,4.0082,4.0083,4.0147,0,0,0,0,0,0,4.041,4.0401,4.0407,4.0353,4.0341,4.032,4.0274,4.0262,4.0246,4.0239,4.0187,4.0177,4.0138,4.0122,4.0116,4.0126,4.0088,4.0079,4.0081,4.0083,4.0144,4.0151,4.0157,0,0,0,0,0,4.0414,4.0429,4.0407,4.04,4.0347,4.0321,4.0313,4.0268,4.0247,4.025,4.0213,4.0179,4.013,4.0121,4.0114,4.0124,4.0078,4.008,4.0082,4.0141,4.015,4.0157,0,0,0,0,0,0,4.0486,4.0421,4.0397,4.0396,4.0364,4.0308,4.0312,4.028,4.0253,4.0249,4.0193,4.0182,4.0173,4.0147,4.0138,4.0128,4.0099,4.01,4.0146,4.0153,4.016,4.0165,4.0086,0,0,0,0,0,4.0502,4.0488,4.0431,4.0436,4.0421,4.0369,4.0356,4.0324,4.0289,4.0275,4.0238,4.0204,4.0179,4.0165,4.0141,4.014,4.0125,4.0143,4.0149,4.0155,4.0156,4.0148,4.0153,4.0092,4.0092,4.0092,0,0,4.0534,4.0497,4.0492,4.0449,4.0421,4.0404,4.0359,4.0345,4.0331,4.0273,4.0257,4.0228,4.0186,4.0177,4.0171,4.0155,4.0169,4.0158,4.0163,4.0161,4.0151,4.0157,4.0162,4.0093,4.0093,4.0093,0,0,4.0584,4.0557,4.0555,4.0527,4.0484,4.0449,4.0449,4.0397,4.0375,4.0358,4.0312,4.0294,4.0256,4.0226,4.0206,4.024,4.0206,4.0234,4.0268,4.026,4.0265,4.0269,4.0277,4.0281,4.0235,4.0235,4.0236,0,4.063,4.0605,4.0558,4.0545,4.0526,4.0472,4.0467,4.0442,4.0394,4.038,4.0363,4.031,4.0278,4.0259,4.0267,4.0254,4.0248,4.0239,4.0269,4.0272,4.0275,4.0282,4.0286,4.0239,4.0238,4.0238,4.0238,0,4.0661,4.0644,4.0647,4.0601,4.0582,4.0574,4.0522,4.0508,4.0477,4.0443,4.0423,4.0383,4.0346,4.034,4.031,4.0315,4.0305,4.0279,4.0248,4.0285,4.029,4.0293,4.0244,4.0243,4.0242,4.0241,0,0,4.0755,4.068,4.0682,4.0658,4.0605,4.059,4.0577,4.0542,4.0529,4.0497,4.0482,4.0448,4.0422,4.0399,4.0365,4.0359,4.0383,4.0333,4.0331,4.034,4.038,4.0398,4.0403,4.036,4.036,4.0361,4.0382,0,4.0794,4.0769,4.0724,4.0713,4.0694,4.064,4.0628,4.0593,4.056,4.0537,4.05,4.0475,4.0445,4.043,4.0422,4.0382,4.0389,4.038,4.0342,4.0342,4.0353,4.0406,4.0426,4.0449,4.0385,4.0385,4.0385,0,4.0836,4.0805,4.0792,4.0736,4.0727,4.0717,4.0678,4.0659,4.0616,4.0592,4.0564,4.0526,4.0506,4.0479,4.0448,4.0442,4.0424,4.0401,4.0401,4.0394,4.0365,4.0398,4.0456,4.0458,4.0389,4.0389,4.0388,0,4.09,4.0856,4.0841,4.0823,4.0759,4.0753,4.0725,4.0682,4.0662,4.0627,4.0613,4.0577,4.0556,4.0528,4.0479,4.0464,4.0452,4.0422,4.0428,4.0429,4.0427,4.0427,4.048,4.042,4.042,4.042,4.042,0,4.0947,4.094,4.0869,4.086,4.0848,4.0796,4.0786,4.0753,4.0714,4.0694,4.0646,4.0629,4.0567,4.0541,4.0503,4.0481,4.0473,4.045,4.044,4.0453,4.0456,4.0439,4.0435,4.0421,4.0421,4.042,4.042,0,4.1017,4.097,4.0949,4.0889,4.0874,4.0868,4.0815,4.0802,4.0766,4.0742,4.0733,4.0674,4.0641,4.059,4.0542,4.0516,4.0499,4.0483,4.0513,4.0506,4.0515,4.0513,4.0557,4.0558,4.05,4.0501,4.0501,0,4.1048,4.1041,4.098,4.0964,4.0938,4.0914,4.0892,4.0839,4.0818,4.0766,4.0759,4.0722,4.0689,4.0638,4.059,4.0551,4.0533,4.055,4.0527,4.0539,4.0529,4.0529,4.0526,4.0556,4.0556,4.0557,4.0558,0,4.1107,4.1083,4.1055,4.1018,4.0994,4.0962,4.0927,4.0916,4.0854,4.0833,4.0799,4.0774,4.0723,4.0686,4.064,4.0609,4.0571,4.0566,4.0564,4.0577,4.0594,4.0581,4.0525,4.0565,4.0564,4.0563,4.0563,4.0563,4.1155,4.1145,4.1099,4.1069,4.1037,4.1005,4.0988,4.0949,4.092,4.0875,4.0845,4.0811,4.0763,4.0698,4.0669,4.0639,4.0624,4.0623,4.0622,4.0622,4.0626,4.06,4.0631,4.0631,4.0631,4.063,4.063,0,4.1208,4.1176,4.1148,4.1101,4.1076,4.1044,4.1003,4.0983,4.0955,4.0915,4.0883,4.0841,4.0803,4.0751,4.0709,4.0695,4.0677,4.0685,4.0685,4.0677,4.0644,4.0648,4.0701,4.0701,4.0701,4.0701,4.0701,4.0701,4.1233,4.1212,4.1183,4.1144,4.1111,4.1079,4.1057,4.1026,4.0993,4.0949,4.0918,4.0884,4.0837,4.0791,4.0753,4.0739,4.0724,4.0737,4.0717,4.0687,4.068,4.0674,4.0677,4.0735,4.0735,4.0752,4.0752,4.0753]}]]